Hoquiam, WA

7:05 AM PDT on August 18, 2017 (GMT -0700)
Bowerman

Weather History for KHQM - January, 2012

Change the Weather History Date:

Saturday, January 21, 2012

  Actual Average Record
Temperature  
Mean Temperature 42 °F 43 °F  
Max Temperature 48 °F 48 °F 59 °F (2005)
Min Temperature 37 °F 38 °F 17 °F (1962)
Degree Days  
Heating Degree Days 22 22  
Month to date heating degree days 473  
Cooling Degree Days 0 0  
Month to date cooling degree days 0  
Year to date cooling degree days 0  
Moisture  
Dew Point 39 °F    
Average Humidity 87    
Maximum Humidity 100    
Minimum Humidity 73    
Precipitation  
Precipitation 0.44 in 0.33 in 3.98 in (2016)
Month to date precipitation 7.34  
Year to date precipitation 7.34  
Sea Level Pressure  
Sea Level Pressure 29.46 in    
Wind  
Wind Speed 17 mph (SW)    
Max Wind Speed 29 mph    
Max Gust Speed 40 mph    
Visibility 8 miles    
Events Rain    
T = Trace of Precipitation, MM = Missing Value Source: NWS Daily Summary

Daily Weather History Graph

Daily Weather History Graph

Search for Another Location

Airport or City:

Trip Planner

Search our weather history database for the weather conditions in past years. The results will help you decide how hot, cold, wet, or windy it might be!

Date:

Astronomy

Jan. 21, 2012 Rise Set
Actual Time 7:52 AM PST 5:01 PM PST
Civil Twilight 7:19 AM PST 5:35 PM PST
Nautical Twilight 6:41 AM PST 6:12 PM PST
Astronomical Twilight 6:05 AM PST 6:48 PM PST
Moon 6:31 AM PST (1/21) 3:41 PM PST (1/21)
Length of Visible Light 10h 16m
Length of Day
9h 08m
Waning Crescent, 3% of the Moon is Illuminated
Jan 21
Waning Crescent
Jan 22
New
Jan 30
First Quarter
Feb 7
Full
Feb 14
Last Quarter

Hourly Weather History & Observations

Time (PST) Temp. Windchill Dew Point Humidity Pressure Visibility Wind Dir Wind Speed Gust Speed Precip Events Conditions
12:43 AM 48.2 °F - 48.2 °F 100% 29.01 in 2.5 mi South 16.1 mph - 0.03 in   Overcast
12:50 AM 48.2 °F - 48.2 °F 100% 29.01 in 3.0 mi South 19.6 mph - 0.04 in   Overcast
12:53 AM 48.9 °F - 48.0 °F 97% 29.03 in 3.0 mi South 20.7 mph 25.3 mph 0.04 in   Overcast
1:00 AM 48.2 °F - 46.4 °F 93% 29.02 in 2.0 mi SSW 24.2 mph 36.8 mph 0.02 in Rain Rain
1:08 AM 46.4 °F 38.3 °F 44.6 °F 93% 29.03 in 3.0 mi WSW 23.0 mph 38.0 mph 0.04 in Rain Light Rain
1:16 AM 46.4 °F 38.1 °F 44.6 °F 93% 29.04 in 3.0 mi WSW 24.2 mph 33.4 mph 0.04 in Rain Light Rain
1:53 AM 45.0 °F 36.0 °F 44.1 °F 97% 29.13 in 4.0 mi SW 25.3 mph 34.5 mph 0.11 in Rain Rain
2:07 AM 44.6 °F 35.9 °F 42.8 °F 93% 29.14 in 5.0 mi WSW 23.0 mph 34.5 mph 0.03 in Rain Light Rain
2:26 AM 44.6 °F 36.4 °F 41.0 °F 87% 29.17 in 6.0 mi WSW 20.7 mph 28.8 mph 0.05 in Rain Light Rain
2:43 AM 44.6 °F 37.8 °F 42.8 °F 93% 29.18 in 6.0 mi WSW 15.0 mph 25.3 mph 0.07 in Rain Light Rain
2:53 AM 44.1 °F 36.5 °F 42.1 °F 93% 29.21 in 4.0 mi WSW 17.3 mph 23.0 mph 0.12 in Rain Heavy Rain
3:11 AM 42.8 °F 35.8 °F 41.0 °F 93% 29.21 in 5.0 mi WSW 13.8 mph - N/A Rain Rain
3:21 AM 44.6 °F 37.2 °F 39.2 °F 81% 29.22 in 7.0 mi WSW 17.3 mph 24.2 mph 0.08 in Rain Light Rain
3:53 AM 44.1 °F 36.5 °F 41.0 °F 89% 29.26 in 7.0 mi SW 17.3 mph - 0.11 in Rain Light Rain
4:09 AM 42.8 °F 35.4 °F 39.2 °F 87% 29.26 in 8.0 mi SSW 15.0 mph - N/A Rain Light Rain
4:53 AM 42.8 °F 37.0 °F 39.2 °F 87% 29.28 in 10.0 mi SSW 10.4 mph - N/A   Overcast
5:33 AM 42.8 °F 35.8 °F 37.4 °F 81% 29.31 in 10.0 mi WSW 13.8 mph - 0.00 in Rain Light Rain
5:53 AM 43.0 °F 36.0 °F 39.0 °F 86% 29.34 in 9.0 mi WSW 13.8 mph - 0.00 in Rain Light Rain
6:53 AM 43.0 °F 36.0 °F 39.0 °F 86% 29.39 in 10.0 mi SW 13.8 mph - 0.00 in   Overcast
7:53 AM 44.1 °F 36.8 °F 37.9 °F 79% 29.42 in 10.0 mi SW 16.1 mph - N/A   Overcast
8:53 AM 43.0 °F 36.0 °F 37.9 °F 82% 29.47 in 10.0 mi SW 13.8 mph - 0.01 in   Mostly Cloudy
9:53 AM 44.1 °F 35.7 °F 37.0 °F 76% 29.51 in 10.0 mi SW 20.7 mph - 0.00 in   Scattered Clouds
10:53 AM 45.0 °F 37.6 °F 39.9 °F 82% 29.56 in 10.0 mi SW 17.3 mph - 0.00 in   Overcast
11:53 AM 45.0 °F 37.9 °F 37.9 °F 76% 29.58 in 10.0 mi WSW 16.1 mph - N/A   Overcast
12:53 PM 43.0 °F 34.2 °F 35.1 °F 74% 29.62 in 10.0 mi West 20.7 mph 32.2 mph N/A   Mostly Cloudy
1:36 PM 39.2 °F 27.6 °F 35.6 °F 87% 29.64 in 2.0 mi West 28.8 mph 40.3 mph 0.04 in Rain Light Rain
1:45 PM 41.0 °F 32.8 °F 35.6 °F 81% 29.65 in 7.0 mi West 16.1 mph 34.5 mph 0.04 in Rain Light Rain
1:53 PM 41.0 °F 32.5 °F 36.0 °F 82% 29.67 in 10.0 mi WSW 17.3 mph 27.6 mph 0.04 in Rain Light Rain
2:53 PM 45.0 °F 38.9 °F 39.0 °F 80% 29.70 in 10.0 mi SW 12.7 mph - 0.00 in   Mostly Cloudy
3:53 PM 45.0 °F 38.9 °F 37.0 °F 74% 29.74 in 10.0 mi WSW 12.7 mph - N/A   Mostly Cloudy
4:53 PM 41.0 °F 33.5 °F 33.1 °F 73% 29.77 in 10.0 mi SW 13.8 mph - 0.00 in   Scattered Clouds
5:53 PM 39.9 °F 35.8 °F 35.1 °F 83% 29.81 in 10.0 mi WSW 5.8 mph - N/A   Mostly Cloudy
6:53 PM 39.9 °F 35.1 °F 33.1 °F 77% 29.83 in 10.0 mi WSW 6.9 mph - N/A   Partly Cloudy
7:53 PM 39.9 °F 33.9 °F 36.0 °F 86% 29.86 in 10.0 mi South 9.2 mph - N/A   Mostly Cloudy
8:53 PM 39.2 °F 34.2 °F 35.6 °F 87% 29.85 in 10.0 mi SSE 6.9 mph - N/A   Mostly Cloudy
9:53 PM 39.9 °F 31.4 °F 37.0 °F 89% 29.88 in 10.0 mi SSE 16.1 mph - 0.00 in   Overcast
10:53 PM 39.0 °F 32.3 °F 37.0 °F 93% 29.87 in 10.0 mi East 10.4 mph - 0.01 in   Mostly Cloudy
11:07 PM 37.4 °F 32.1 °F 35.6 °F 93% 29.86 in 10.0 mi ENE 6.9 mph - N/A   Mostly Cloudy
11:22 PM 37.4 °F 31.4 °F 35.6 °F 93% 29.86 in 10.0 mi ENE 8.1 mph - N/A   Mostly Cloudy
11:53 PM 37.9 °F 31.5 °F 36.0 °F 93% 29.87 in 10.0 mi ENE 9.2 mph - N/A   Overcast